• In Belarus
  • List of Countries
  • For 7 days
  • Water Temperature
  • Satellite Maps
  • Weather Map
  • Weather Widgets
  • user-avatar
    Login

    Hourly Weather Sylhet

    Today, 17 July, Tuesday

    Time Temperature Precipitation Wind Pressure Humidity
    00:00 +29°C° 0 mm 2 mps 750 mmHg 81%
    01:00 +29°C° 0 mm 2 mps 750 mmHg 82%
    02:00 +29°C° 0 mm 2 mps 749 mmHg 83%
    03:00 +29°C° 0 mm 2 mps 749 mmHg 83%
    04:00 +29°C° 0.1 mm 2 mps 749 mmHg 84%
    05:00 +29°C° 0.1 mm 2 mps 749 mmHg 85%
    06:00 +28°C° 0.1 mm 2 mps 749 mmHg 86%
    07:00 +30°C° 0.1 mm 3 mps 750 mmHg 82%
    08:00 +31°C° 0.1 mm 3 mps 750 mmHg 78%
    09:00 +33°C° 0.1 mm 3 mps 750 mmHg 74%
    10:00 +34°C° 0.6 mm 3 mps 749 mmHg 72%
    11:00 +35°C° 0.6 mm 3 mps 749 mmHg 69%
    12:00 +35°C° 0.6 mm 3 mps 749 mmHg 66%
    13:00 +36°C° 0.6 mm 3 mps 748 mmHg 66%
    14:00 +36°C° 0.6 mm 3 mps 748 mmHg 65%
    15:00 +36°C° 0.6 mm 2 mps 747 mmHg 64%
    16:00 +35°C° 0.4 mm 2 mps 747 mmHg 68%
    17:00 +35°C° 0.4 mm 2 mps 747 mmHg 72%
    18:00 +34°C° 0.4 mm 2 mps 747 mmHg 77%
    19:00 +32°C° 0.4 mm 2 mps 748 mmHg 80%
    20:00 +31°C° 0.4 mm 2 mps 748 mmHg 83%
    21:00 +30°C° 0.4 mm 2 mps 749 mmHg 87%
    22:00 +30°C° 0.2 mm 2 mps 749 mmHg 87%
    23:00 +30°C° 0.2 mm 1 mps 749 mmHg 88%

    Tomorrow, 18 July, Wednesday

    Time Temperature Precipitation Wind Pressure Humidity
    00:00 +29°C° 0.2 mm 1 mps 749 mmHg 89%
    01:00 +29°C° 0.6 mm 1 mps 749 mmHg 89%
    02:00 +29°C° 0.6 mm 1 mps 749 mmHg 90%
    03:00 +29°C° 0.6 mm 1 mps 749 mmHg 90%
    04:00 +29°C° 0.1 mm 1 mps 749 mmHg 89%
    05:00 +29°C° 0.1 mm 1 mps 749 mmHg 89%
    06:00 +29°C° 0.1 mm 1 mps 749 mmHg 89%
    07:00 +30°C° 0 mm 2 mps 749 mmHg 83%
    08:00 +31°C° 0 mm 2 mps 749 mmHg 77%
    09:00 +34°C° 0 mm 2 mps 750 mmHg 71%
    10:00 +35°C° 0.1 mm 2 mps 749 mmHg 66%
    11:00 +36°C° 0.1 mm 2 mps 749 mmHg 61%
    12:00 +37°C° 0.1 mm 2 mps 748 mmHg 57%
    13:00 +38°C° 0.1 mm 2 mps 748 mmHg 56%
    14:00 +37°C° 0.1 mm 1 mps 747 mmHg 55%
    15:00 +37°C° 0.1 mm 1 mps 746 mmHg 54%
    16:00 +37°C° 0 mm 1 mps 746 mmHg 58%
    17:00 +36°C° 0 mm 1 mps 746 mmHg 62%
    18:00 +35°C° 0 mm 1 mps 746 mmHg 66%
    19:00 +34°C° 0 mm 1 mps 747 mmHg 69%
    20:00 +34°C° 0 mm 2 mps 747 mmHg 73%
    21:00 +32°C° 0 mm 2 mps 748 mmHg 76%
    22:00 +31°C° 0.4 mm 2 mps 748 mmHg 78%
    23:00 +31°C° 0.4 mm 2 mps 748 mmHg 81%

    Day after tomorrow, 19 July, Thursday

    Time Temperature Precipitation Wind Pressure Humidity
    00:00 +30°C° 0.4 mm 2 mps 748 mmHg 83%
    01:00 +30°C° 0.8 mm 2 mps 748 mmHg 85%
    02:00 +29°C° 0.8 mm 2 mps 748 mmHg 87%
    03:00 +29°C° 0.8 mm 1 mps 748 mmHg 89%
    04:00 +29°C° 0.3 mm 1 mps 748 mmHg 89%
    05:00 +29°C° 0.3 mm 1 mps 748 mmHg 90%
    06:00 +29°C° 0.3 mm 1 mps 749 mmHg 90%
    07:00 +30°C° 0.1 mm 1 mps 749 mmHg 85%
    08:00 +31°C° 0.1 mm 1 mps 749 mmHg 80%
    09:00 +32°C° 0.1 mm 1 mps 749 mmHg 76%
    10:00 +34°C° 0 mm 1 mps 749 mmHg 70%
    11:00 +35°C° 0 mm 1 mps 748 mmHg 65%
    12:00 +36°C° 0 mm 1 mps 748 mmHg 59%
    13:00 +36°C° 0 mm 1 mps 747 mmHg 58%
    14:00 +37°C° 0 mm 1 mps 746 mmHg 56%
    15:00 +37°C° 0 mm 1 mps 745 mmHg 55%
    16:00 +37°C° 0 mm 1 mps 745 mmHg 58%
    17:00 +36°C° 0 mm 1 mps 745 mmHg 61%
    18:00 +35°C° 0 mm 1 mps 745 mmHg 64%
    19:00 +35°C° 0 mm 2 mps 746 mmHg 67%
    20:00 +34°C° 0 mm 2 mps 746 mmHg 70%
    21:00 +32°C° 0 mm 2 mps 747 mmHg 73%
    22:00 +32°C° 0.8 mm 2 mps 747 mmHg 76%
    23:00 +31°C° 0.8 mm 2 mps 747 mmHg 79%

    20 July, Friday

    Time Temperature Precipitation Wind Pressure Humidity
    00:00 +30°C° 0.8 mm 2 mps 747 mmHg 83%
    01:00 +30°C° 1.7 mm 2 mps 747 mmHg 85%
    02:00 +30°C° 1.7 mm 2 mps 747 mmHg 88%
    03:00 +29°C° 1.7 mm 2 mps 747 mmHg 90%
    04:00 +29°C° 0.7 mm 2 mps 747 mmHg 90%
    05:00 +29°C° 0.7 mm 1 mps 747 mmHg 91%
    06:00 +29°C° 0.7 mm 1 mps 747 mmHg 91%
    07:00 +30°C° 0 mm 1 mps 747 mmHg 86%
    08:00 +31°C° 0 mm 2 mps 748 mmHg 81%
    09:00 +32°C° 0 mm 2 mps 748 mmHg 76%
    10:00 +35°C° 0 mm 2 mps 747 mmHg 70%
    11:00 +35°C° 0 mm 1 mps 747 mmHg 64%
    12:00 +37°C° 0 mm 1 mps 746 mmHg 58%
    13:00 +37°C° 0 mm 1 mps 746 mmHg 57%
    14:00 +38°C° 0 mm 2 mps 745 mmHg 56%
    15:00 +38°C° 0 mm 2 mps 744 mmHg 56%
    16:00 +37°C° 0 mm 2 mps 744 mmHg 60%
    17:00 +37°C° 0 mm 2 mps 745 mmHg 64%
    18:00 +36°C° 0 mm 2 mps 745 mmHg 68%
    19:00 +35°C° 0.6 mm 3 mps 745 mmHg 72%
    20:00 +34°C° 0.6 mm 3 mps 746 mmHg 75%
    21:00 +33°C° 0.6 mm 3 mps 747 mmHg 78%
    22:00 +31°C° 0.8 mm 3 mps 747 mmHg 80%
    23:00 +31°C° 0.8 mm 3 mps 747 mmHg 83%

    21 July, Saturday

    Time Temperature Precipitation Wind Pressure Humidity
    00:00 +30°C° 0.8 mm 2 mps 747 mmHg 85%
    01:00 +30°C° 0.5 mm 2 mps 747 mmHg 86%
    02:00 +29°C° 0.5 mm 2 mps 746 mmHg 88%
    03:00 +29°C° 0.5 mm 1 mps 746 mmHg 90%
    04:00 +29°C° 0 mm 1 mps 746 mmHg 90%
    05:00 +29°C° 0 mm 1 mps 746 mmHg 90%
    06:00 +29°C° 0 mm 1 mps 746 mmHg 90%
    07:00 +30°C° 0 mm 1 mps 746 mmHg 85%
    08:00 +31°C° 0 mm 1 mps 747 mmHg 80%
    09:00 +32°C° 0 mm 1 mps 747 mmHg 75%
    10:00 +34°C° 0 mm 1 mps 746 mmHg 69%
    11:00 +35°C° 0 mm 1 mps 746 mmHg 63%
    12:00 +37°C° 0 mm 1 mps 745 mmHg 57%
    13:00 +37°C° 0 mm 1 mps 745 mmHg 55%
    14:00 +39°C° 0 mm 1 mps 744 mmHg 53%
    15:00 +39°C° 0 mm 1 mps 743 mmHg 52%
    16:00 +37°C° 0 mm 1 mps 743 mmHg 56%
    17:00 +36°C° 0 mm 1 mps 744 mmHg 60%
    18:00 +37°C° 0 mm 2 mps 744 mmHg 64%
    19:00 +36°C° 0.5 mm 2 mps 744 mmHg 67%
    20:00 +35°C° 0.5 mm 2 mps 745 mmHg 71%
    21:00 +34°C° 0.5 mm 2 mps 745 mmHg 74%
    22:00 +32°C° 1.1 mm 2 mps 745 mmHg 77%
    23:00 +31°C° 1.1 mm 2 mps 745 mmHg 80%

    22 July, Sunday

    Time Temperature Precipitation Wind Pressure Humidity
    00:00 +31°C° 1.1 mm 2 mps 745 mmHg 83%
    01:00 +30°C° 2 mm 1 mps 745 mmHg 85%
    02:00 +30°C° 2 mm 1 mps 745 mmHg 87%
    03:00 +30°C° 2 mm 1 mps 745 mmHg 89%
    04:00 +29°C° 0.6 mm 1 mps 745 mmHg 89%
    05:00 +29°C° 0.6 mm 1 mps 745 mmHg 89%
    06:00 +29°C° 0.6 mm 1 mps 745 mmHg 90%
    07:00 +31°C° 0 mm 2 mps 745 mmHg 84%
    08:00 +32°C° 0 mm 2 mps 745 mmHg 78%
    09:00 +35°C° 0 mm 3 mps 745 mmHg 73%
    10:00 +36°C° 0 mm 3 mps 745 mmHg 65%
    11:00 +38°C° 0 mm 4 mps 744 mmHg 58%
    12:00 +41°C° 0 mm 5 mps 744 mmHg 51%
    13:00 +40°C° 0 mm 5 mps 743 mmHg 52%
    14:00 +40°C° 0 mm 5 mps 743 mmHg 52%
    15:00 +40°C° 0 mm 5 mps 742 mmHg 53%
    16:00 +37°C° 0.1 mm 5 mps 743 mmHg 57%
    17:00 +36°C° 0.1 mm 5 mps 743 mmHg 62%
    18:00 +34°C° 0.1 mm 5 mps 743 mmHg 66%
    19:00 +33°C° 0.6 mm 5 mps 744 mmHg 71%
    20:00 +32°C° 0.6 mm 4 mps 745 mmHg 75%
    21:00 +30°C° 0.6 mm 4 mps 746 mmHg 79%
    22:00 +30°C° 0.2 mm 4 mps 746 mmHg 81%
    23:00 +29°C° 0.2 mm 4 mps 746 mmHg 82%
    Show more